Вернуться в каталог

INTELSAT 29E DEB

LostMEO
NORAD 62723·DEBRIS· XX

Запущен Jan 27, 2016 с Guiana Space Centre

Loading…

Ближайшие Пролёты (ближайшие 24 часа)

TLE

УстаревшееSource: Space-Track

Эпоха: Mar 27, 2025, 12:33 UTC

1 62723U 16004E   25086.52352323  .00000010  00000-0  00000-0 0  9998
2 62723   5.4043  75.8258 0623060 307.4539  47.2101  1.00540659  8060

Отслеживайте INTELSAT 29E DEB в реальном времени с AllMySat

Download on the App Store